Home > Weather > Faro > Past weeks

Flag for Portugal Weather for the Past 2 Weeks in Faro, Portugal

Now
63 °F

Partly sunny.


Feels Like: 63 °F
Forecast: 50 / 62 °F
Wind: 12 mph from West

Location: Faro / Aeroporto

Current Time: Feb 9, 2016 at 12:28:24 PM

Latest Report: Feb 9, 2016 at 11:30 AM


Visibility: N/A

Pressure: 30.42 "Hg

Humidity: 83%

Dew point: 57 °F

Location of FaroLocation

Historic Weather in Faro — Graph

°F

Faro Temperature Yesterday

Maximum temperature yesterday: 63 °F (at 11:30 AM)
Minimum temperature yesterday: 48 °F (at 1:30 AM)
Average temperature yesterday: 57 °F

High & Low Weather Summary for the Past Weeks

 TemperatureHumidityPressure
High68 °F (Feb 1, 12:30 PM)100% (Jan 26, 1:00 AM)30.60 "Hg (Jan 26, 1:00 AM)
Low46 °F (Jan 27, 6:30 AM)48% (Feb 4, 4:00 AM)30.12 "Hg (Feb 6, 5:30 AM)
Average57 °F79%30.38 "Hg
* Reported Jan 25 10:00 AM — Feb 9 10:30 AM, Faro, Weather by CustomWeather, © 2016

Note: Actual official high and low records may vary slightly from our data, if they occured in-between our weather recording intervals... More about our weather records

Advertising

Faro Weather History for the Previous 24 Hours

 ConditionsComfort  
Time TempWeatherWind HumidityBarometerVisibility
10:30 AM
Tue, Feb 9
63 °FScattered clouds.12 mph77%30.42 "HgN/A
10:00 AM63 °FPartly sunny.10 mph73%30.42 "HgN/A
9:30 AM61 °FPartly sunny.7 mph88%30.39 "HgN/A
9:00 AM61 °FPartly sunny.6 mph88%30.39 "HgN/A
8:00 AM59 °FPartly sunny.7 mph88%30.36 "HgN/A
7:30 AM59 °FScattered clouds.8 mph88%30.36 "HgN/A
7:00 AM59 °FPassing clouds.5 mph88%30.36 "HgN/A
6:30 AM59 °FPassing clouds.6 mph82%30.36 "HgN/A
6:00 AM57 °FPassing clouds.2 mph88%30.36 "HgN/A
5:30 AM57 °FPassing clouds.2 mph82%30.36 "HgN/A
4:30 AM57 °FPassing clouds.5 mph82%30.36 "HgN/A
3:30 AM57 °FPassing clouds.5 mph82%30.39 "HgN/A
3:00 AM57 °FPassing clouds.2 mph82%30.39 "HgN/A
2:30 AM57 °FPassing clouds.2 mph77%30.39 "HgN/A
2:00 AM57 °FPassing clouds.5 mph77%30.39 "HgN/A
1:30 AM57 °FPassing clouds.5 mph82%30.39 "HgN/A
1:00 AM57 °FPassing clouds.5 mph82%30.42 "HgN/A
12:30 AM59 °FPassing clouds.6 mph77%30.42 "HgN/A
12:00 AM57 °FPassing clouds.5 mph82%30.42 "HgN/A
11:30 PM
Mon, Feb 8
57 °FPassing clouds.5 mph82%30.42 "HgN/A
11:00 PM59 °FPassing clouds.5 mph77%30.42 "HgN/A
10:00 PM59 °FPassing clouds.8 mph77%30.42 "HgN/A
9:30 PM61 °FPassing clouds.10 mph77%30.42 "HgN/A
9:00 PM59 °FPassing clouds.9 mph82%30.42 "HgN/A
8:30 PM61 °FPassing clouds.9 mph77%30.42 "HgN/A
8:00 PM59 °FPassing clouds.7 mph77%30.39 "HgN/A
7:30 PM59 °FPassing clouds.8 mph77%30.39 "HgN/A
7:00 PM59 °FPassing clouds.8 mph82%30.39 "HgN/A
6:30 PM59 °FPassing clouds.7 mph77%30.39 "HgN/A
6:00 PM59 °FPartly sunny.8 mph77%30.39 "HgN/A
5:30 PM61 °FScattered clouds.7 mph72%30.39 "HgN/A
5:00 PM61 °FScattered clouds.9 mph72%30.39 "HgN/A
4:30 PM61 °FPartly sunny.8 mph72%30.39 "HgN/A
4:00 PM61 °FScattered clouds.8 mph72%30.39 "HgN/A
3:30 PM61 °FScattered clouds.8 mph72%30.42 "HgN/A
3:00 PM63 °FPassing clouds.9 mph64%30.42 "HgN/A
2:30 PM63 °FPassing clouds.8 mph64%30.42 "HgN/A
2:00 PM63 °FPassing clouds.7 mph64%30.42 "HgN/A
1:30 PM63 °FPartly sunny.8 mph64%30.45 "HgN/A
1:00 PM63 °FPartly sunny.8 mph64%30.45 "HgN/A
12:30 PM63 °FBroken clouds.9 mph56%30.48 "HgN/A
12:00 PM63 °FPartly sunny.7 mph59%30.48 "HgN/A
Weather by CustomWeather, © 2016

See weather overviewHow to use our weather pages